Regional Weather Roundup
Issued by NWS Albany, NY

Home | Current Version | Previous Version | Graphics & Text | Print | Product List | Glossary Off
Versions: 1 2 3 4 5 6 7 8 9 10 11 12 13 14 15 16 17 18 19 20 21 22 23 24 25 26 27 28

000
ASUS41 KALY 201410
RWRALY

NEW YORK STATE HOURLY WEATHER ROUNDUP
NATIONAL WEATHER SERVICE ALBANY NY
900 AM EST MON FEB 20 2017

NOTE: "FAIR" INDICATES FEW OR NO CLOUDS BELOW 12,000 FEET WITH NO
SIGNIFICANT WEATHER AND/OR NO OBSTRUCTIONS TO VISIBILITY.

NYZ032-033-038>043-046>054-057>066-NYZ062>081-082-084-201500-
EAST


CITY           SKY/WX    TMP DP  RH WIND       PRES   REMARKS
ALBANY         MOSUNNY   37  26  64 NW8       30.21R WCI  31
GLENS FALLS    SUNNY     35  19  52 N8        30.21R WCI  29
POUGHKEEPSIE   SUNNY     40  29  64 N6        30.18R
NEWBURGH       SUNNY     41  32  70 W9        30.18R
MONTGOMERY     SUNNY     45  27  49 NW7       30.16R
WHITE PLAINS   SUNNY     44  31  60 NW8       30.15R
ISLIP          SUNNY     47  33  58 N9        30.15R
NEW YORK CITY  SUNNY     47  32  56 NW14      30.17R
CENTRAL PARK   SUNNY     45  30  55 NW12      30.20R
$$

NYZ005>009-017-018-044>046-055-056-201500-
CENTRAL


CITY           SKY/WX    TMP DP  RH WIND       PRES   REMARKS
FULTON         SUNNY     32  20  61 N10       30.33R WCI  24
SYRACUSE       MOSUNNY   31  21  66 NW9       30.32R WCI  23
ROME           SUNNY     29  18  63 NW9       30.30R WCI  20
ELMIRA         CLOUDY    36  27  69 NE7       30.28R WCI  30
BINGHAMTON     SUNNY     30  23  75 N12       30.22R WCI  20
MONTICELLO     SUNNY     37  21  52 NW13G23   30.18R WCI  29
$$

NYZ026>034-041>043-087-201500-
NORTH


CITY           SKY/WX    TMP DP  RH WIND       PRES   REMARKS
WATERTOWN      SUNNY     30  20  66 N12       30.32R WCI  20
FORT DRUM      NOT AVBL
OGDENSBURG     FAIR      29  18  61 N13       30.33R WCI  19
MASSENA        SUNNY     28  15  58 NW10      30.33R WCI  19
SARANAC LAKE   SUNNY     24  15  68 NW6       30.18R WCI  17
PLATTSBURGH    SUNNY     31  14  49 N15       30.27R WCI  20
$$

NYZ001>004-010>016-019>021-085-201500-
WEST


CITY           SKY/WX    TMP DP  RH WIND       PRES   REMARKS
NIAGARA FALLS  SUNNY     37  28  70 NE8       30.34R WCI  31
BUFFALO        MOSUNNY   35  28  75 NE8       30.33R WCI  29
DUNKIRK        CLOUDY    36  31  82 NE5       30.33R WCI  32
JAMESTOWN      SUNNY     36  27  69 CALM      30.28R
WELLSVILLE     CLOUDY    32  28  85 NW6       30.26R WCI  26
ROCHESTER      MOSUNNY   35  25  66 NE10      30.34R WCI  27
PENN YAN       CLOUDY    33  24  69 N7        30.31R WCI  27
$$

             KEY
       WCI = WIND CHILL INDEX
       VSB = VISIBILITY
       HX  = HEAT INDEX
$$




USA.gov is the U.S. government's official web portal to all federal, state and local government web resources and services.